Погода Шахунья

Погода Шахунья : погода сейчас, прогноз погоды и архив. Всё, что Вы хотите узнать о погоде Шахунья!

Поиск расширенной информации на нашем сайте:

Другие новости

Новости СМИ2

Главная страница сайта

Новости сайта

03.07.2017

Напоминаем, что на нашем специализированном сайте Метеоцентр.Азия вы можете получить высокодетализированные автоматические прогнозы погоды по пунктам России, СНГ и мира в авиационном формате (включающие направление и скорость ветра, видимость, явления погоды, количество и форму облачности, нижнюю и верхнюю границу облачности).


Погода Шахунья - сегодня

Время (UTC), дата Ветер
(°,м/с) 
Видим.   Явления Облачность Т
(°С)
Тd
(°С)
f(%) Тe
(°С)
Pmin
(гПа)
dP
(гПа)
Po
(мм)
O2
(г/м3)
Тmin Tmax R s Состояние
почвы
03 14.06.18 310 (СЗ) 4-6{06}  20000 м    10/10 300 м 
[St]
+8 +6.1 88 +7  1010.3  742  289  +7.5    0.4    влажная 
15 14.06.18 330 (СЗ) 4-7{10}  20000 м  в посл. час ливневой дождь  8/4 600 м кучево-дожд., средняя 
[Cb cap|Ac As]
+12.2 +4.5 59 +12  1015  1.4  746  287    +13.8  0.7     
21 14.06.18 310 (СЗ) 2-2{03}  4000 м    ясно 
+3 +1.2 88 +2  1018  1.1  747  298           
03 15.06.18 310 (СЗ) 2-3{03}  20000 м    ясно 
+6 +1.5 73 +6  1019.7  0.8  749  295  +0.4        влажная 
15 15.06.18 340 (С) 2-5{09}  20000 м    3/3 1000 м 
[Sc diur, vesp]
+15.1 +0.4 37 +16  1017.8  -0.2  748  285    +16.1       
18 15.06.18 260 (З) 1-1{06}  20000 м    ясно 
+7.5 +3 73 +8  1018.4  748  293           
21 15.06.18 300 (СЗ) 1-1{02}  4000 м    ясно 
+3.8 +2.3 90 +5  1019.4  0.6  748  297           
03 16.06.18 330 (СЗ) 2-3{03}  20000 м    ясно 
+9.5 +3.8 68 +10  1020.3  0.8  749  291  +1.8        влажная 
06 16.06.18 320 (СЗ) 4-7{07}  20000 м    ясно 
+15.7 +1.3 38 +16  1019.8  749  285           
18 16.06.18 250 (З) 1-1{07}  20000 м    ясно 
+11 +4.6 65 +12  1018.4  748  289           
21 16.06.18 тихо () -0{01}  4000 м    ясно 
+6.1 +3.2 82 +6  1018.9  0.1  748  294           
03 17.06.18 320 (СЗ) 2-3{03}  20000 м    3/0 верхняя 
[Ci fib]
+11.9 +5.6 65 +12  1018.3  -0.2  748  288  +5.6        сухая 
06 17.06.18 350 (С) 2-4{05}  20000 м    ясно 
+19 +4.5 38 +20  1017.8  0.1  748  281           
09 17.06.18 330 (СЗ) 4-7{08}  20000 м    ясно 
+22.5 +5.6 33 +23  1016.2  -1.4  747  277           
15 17.06.18 340 (С) 3-8{10}  20000 м    1/0 средняя 
[Ac lent]
+24.4 +5.9 30 +24  1014.3  -0.9  746  275    +25       
18 17.06.18 340 (С) 1-2{08}  20000 м    ясно 
+17.6 +9.2 58 +19  1015.1  0.4  746  281           
21 17.06.18 330 (СЗ) 1-1{02}  4000 м    ясно 
+10.2 +7.3 82 +11  1016  0.3  746  289           
03 18.06.18 320 (СЗ) 1-1{02}  20000 м    3/0 верхняя 
[Ci fib]
+15 +9.2 68 +16  1015.7  0.1  746  283  +7.6        сухая 
15 18.06.18 010 (С) 1-3{08}  20000 м    6/4 600 м средняя 
[Cu Sc|Ac trans]
+24.6 +11.8 45 +28  1011.9  -1  744  273    +27       
03 19.06.18 310 (СЗ) 1-2{03}  20000 м    8/0 средняя, верхняя 
[Ac As|Cc]
+17.9 +12.9 73 +24  1011.3  -0.3  743  278  +13        сухая 
15 19.06.18 250 (З) 2-4{07}  20000 м    8/3 1000 м средняя, верхняя 
[Sc|Ac trans|Ci]
+22.5 +14.1 59 +30  1007.1  -0.6  740  273    +28.3       
03 20.06.18 220 (ЮЗ) 3-5{06}  20000 м    10/0 средняя 
[Ac und]
+16.6 +13.9 84 +24  1000.2  -2.2  735  276  +13.7        сухая 
15 20.06.18 280 (З) 1-3{20}  20000 м  {ливн. осадки}  8/5 600 м кучево-дожд., средняя, верхняя 
[Cb cap|Ac cuf|Ci ing]
+15.1 +7.7 61 +16  1000.8  1.4  735  279    +18.7     
03 21.06.18 280 (З) 4-8{09}  20000 м    3/1 1000 м средняя 
[Cu hum|Ac lent]
+12.3 +8 75 +12  1000.8  735  282  +9.3      влажная 
15 21.06.18 310 (СЗ) 6-12{17}  20000 м    4/3 1000 м верхняя 
[Cu hum|Ci sp]
+19.8 +3 33 +20  1002.8  1.7  737  276    +20.4       
Время (UTC), дата Ветер
(°,м/с) 
Видим.   Явления Облачность Т
(°С)
Тd
(°С)
f(%) Тe
(°С)
Pmin
(гПа)
dP
(гПа)
Po
(мм)
O2
(г/м3)
Тmin Tmax R s Состояние
почвы

Для получения пояснительной информации подведите курсор к названию столбца.

ПОГОДА Шахунья - архив

Всё, что Вы хотите узнать о погоде Шахунья - удобно и подробно!

Выберите нужную дату (начиная с 1 января 2015* года) и нажмите кнопку "Найти".
Будут отображены архивные сводки погоды по пункту Шахунья, начиная с указанной даты.


Отображать данные в формате CSV (для использования в таблицах Excel)


Внимание! Наш архив погоды предназначен исключительно для личного некоммерческого использования в познавательных целях. Если Вам необходимы официальные справки о состоянии погоды (для производственных, юридических, коммерческих и т.п. целей), обращайтесь в органы Росгидромета.

*Примечание: данная дата относится к архиву по метеостанциям СССР (Россия, СНГ, Балтия).
Архив по метеостанциям Зарубежной Европы и Азии (кроме Китая) хранится 10 дней, по другим регионам земного шара (Китай, Африка, Америка, Австралия, Океания) - 1 день.

Шахунья - район местоположения метеостанции


Название, широта, долгота, высота метеостанции:
Шахунья 57.7°ш. 46.6°д. 175 м над ур. моря [Российская Федерация]

Дополнительная информация

В oтличие oт бoльшинства пoгoдных сайтoв мы публикуем пoдрoбную метеoинфoрмацию в детальнoм прoфессиoнальнoм фoрмате.

Характеристики температуры и влажнoсти вoздуха измеряются на высoте 2 м в тени вдали oт зданий и деревьев.
Скoрoсть ветра измеряется на высoте 10 м (на урoвне рoста челoвека скoрoсть ветра ниже в 1.5-2 раза). Если метеoстанция нахoдится в гoрoде или в лесу, тo скoрoсть ветра занижена на 2-4 м/с пo сравнению с oткрытым местoм. Скoрoсть ветра над акватoриями крупных рек и oзёр, а также на вершинах хoлмoв на 2-5 м/с выше, чем в oбычных услoвиях.
Атмoсфернoе давление в разных тoчках местнoсти мoжет значительнo oтличаться oт давления на метеoстанции, в зависимoсти oт услoвий рельефа (при пoдъёме на 10 м давление пoнижается примернo на 1 мм рт.ст.).